Time,TemperatureF,DewpointF,PressureIn,WindDirection,WindDirectionDegrees,WindSpeedMPH,WindSpeedGustMPH,Humidity,HourlyPrecipIn,Conditions,Clouds,dailyrainin,SolarRadiationWatts/m^2,SoftwareType,DateUTC
2013-07-04 00:02:00,79.0,73.0,-100.00,SE,126,5.0,11.0,82,0.00,,,0.07,0.000000,,2013-07-04 04:02:00,
2013-07-04 00:11:00,79.0,73.0,-100.00,SE,126,5.0,11.0,82,0.00,,,0.07,0.000000,,2013-07-04 04:11:00,
2013-07-04 00:22:00,79.0,73.0,-100.00,SE,126,5.0,11.0,82,0.00,,,0.07,0.000000,,2013-07-04 04:22:00,
2013-07-04 00:33:00,79.0,73.0,-100.00,SE,126,5.0,11.0,82,0.00,,,0.07,0.000000,,2013-07-04 04:33:00,
2013-07-04 01:12:00,81.0,76.0,-100.00,ESE,110,4.0,11.0,84,0.00,,,0.07,0.000000,,2013-07-04 05:12:00,
2013-07-04 01:22:00,81.0,76.0,-100.00,ESE,110,4.0,11.0,84,0.00,,,0.07,0.000000,,2013-07-04 05:22:00,
2013-07-04 01:33:00,81.0,76.0,-100.00,ESE,110,4.0,11.0,84,0.00,,,0.07,0.000000,,2013-07-04 05:33:00,
2013-07-04 02:01:00,81.0,75.0,-100.00,SE,127,5.0,10.0,82,0.00,,,0.07,0.000000,,2013-07-04 06:01:00,
2013-07-04 02:11:00,81.0,75.0,-100.00,SE,127,5.0,10.0,82,0.00,,,0.07,0.000000,,2013-07-04 06:11:00,
2013-07-04 02:22:00,81.0,75.0,-100.00,SE,127,5.0,10.0,82,0.00,,,0.07,0.000000,,2013-07-04 06:22:00,
2013-07-04 02:34:00,81.0,75.0,-100.00,SE,127,5.0,10.0,82,0.00,,,0.07,0.000000,,2013-07-04 06:34:00,
2013-07-04 03:02:00,82.0,76.0,-100.00,SE,124,6.0,11.0,81,0.00,,,0.07,0.000000,,2013-07-04 07:02:00,
2013-07-04 03:12:00,82.0,76.0,-100.00,SE,124,6.0,11.0,81,0.00,,,0.07,0.000000,,2013-07-04 07:12:00,
2013-07-04 03:22:00,82.0,76.0,-100.00,SE,124,6.0,11.0,81,0.00,,,0.07,0.000000,,2013-07-04 07:22:00,
2013-07-04 03:34:00,82.0,76.0,-100.00,SE,124,6.0,11.0,81,0.00,,,0.07,0.000000,,2013-07-04 07:34:00,
2013-07-04 04:02:00,81.0,75.0,-100.00,SE,129,5.0,12.0,81,0.00,,,0.07,0.000000,,2013-07-04 08:02:00,
2013-07-04 04:11:00,81.0,75.0,-100.00,SE,129,5.0,12.0,81,0.00,,,0.07,0.000000,,2013-07-04 08:11:00,
2013-07-04 04:22:00,81.0,75.0,-100.00,SE,129,5.0,12.0,81,0.00,,,0.07,0.000000,,2013-07-04 08:22:00,
2013-07-04 04:33:00,81.0,75.0,-100.00,SE,129,5.0,12.0,81,0.00,,,0.07,0.000000,,2013-07-04 08:33:00,
2013-07-04 05:02:00,81.0,74.0,-100.00,SE,126,6.0,14.0,79,0.00,,,0.07,0.000000,,2013-07-04 09:02:00,
2013-07-04 05:11:00,81.0,74.0,-100.00,SE,126,6.0,14.0,79,0.00,,,0.07,0.000000,,2013-07-04 09:11:00,
2013-07-04 05:22:00,81.0,74.0,-100.00,SE,126,6.0,14.0,79,0.00,,,0.07,0.000000,,2013-07-04 09:22:00,
2013-07-04 05:32:00,81.0,74.0,-100.00,SE,126,6.0,14.0,79,0.00,,,0.07,0.000000,,2013-07-04 09:32:00,
2013-07-04 06:01:00,81.0,74.0,-100.00,SE,129,6.0,13.0,79,0.00,,,0.07,0.000000,,2013-07-04 10:01:00,
2013-07-04 06:11:00,81.0,74.0,-100.00,SE,129,6.0,13.0,79,0.00,,,0.07,0.000000,,2013-07-04 10:11:00,
2013-07-04 06:22:00,81.0,74.0,-100.00,SE,129,6.0,13.0,79,0.00,,,0.07,0.000000,,2013-07-04 10:22:00,
2013-07-04 06:34:00,81.0,74.0,-100.00,SE,129,6.0,13.0,79,0.00,,,0.07,0.000000,,2013-07-04 10:34:00,
2013-07-04 07:11:00,81.0,74.0,-100.00,SE,129,6.0,13.0,80,0.00,,,0.07,0.000000,,2013-07-04 11:11:00,
2013-07-04 07:22:00,81.0,74.0,-100.00,SE,129,6.0,13.0,80,0.00,,,0.07,0.000000,,2013-07-04 11:22:00,
2013-07-04 07:34:00,81.0,74.0,-100.00,SE,129,6.0,13.0,80,0.00,,,0.07,0.000000,,2013-07-04 11:34:00,
2013-07-04 08:12:00,80.0,75.0,-100.00,SE,131,6.0,20.0,85,0.07,,,0.14,28.000000,,2013-07-04 12:12:00,
2013-07-04 08:22:00,80.0,75.0,-100.00,SE,131,6.0,20.0,85,0.07,,,0.14,28.000000,,2013-07-04 12:22:00,
2013-07-04 08:33:00,80.0,75.0,-100.00,SE,131,6.0,20.0,85,0.07,,,0.14,28.000000,,2013-07-04 12:33:00,
2013-07-04 09:12:00,80.0,74.0,-100.00,SE,133,5.0,19.0,83,0.03,,,-99.99,149.000000,,2013-07-04 13:12:00,
2013-07-04 09:23:00,80.0,74.0,-100.00,SE,133,5.0,19.0,83,0.03,,,-99.99,149.000000,,2013-07-04 13:23:00,
2013-07-04 09:33:00,80.0,74.0,-100.00,SE,133,5.0,19.0,83,0.03,,,-99.99,149.000000,,2013-07-04 13:33:00,
2013-07-04 10:02:00,82.0,72.0,-100.00,SE,133,7.0,18.0,73,0.00,,,0.17,292.000000,,2013-07-04 14:02:00,
2013-07-04 10:12:00,82.0,72.0,-100.00,SE,133,7.0,18.0,73,0.00,,,0.17,292.000000,,2013-07-04 14:12:00,
2013-07-04 10:22:00,82.0,72.0,-100.00,SE,133,7.0,18.0,73,0.00,,,0.17,292.000000,,2013-07-04 14:22:00,
2013-07-04 10:33:00,82.0,72.0,-100.00,SE,133,7.0,18.0,73,0.00,,,0.17,292.000000,,2013-07-04 14:33:00,
2013-07-04 11:02:00,86.0,75.0,-100.00,SE,127,8.0,16.0,70,0.01,,,0.18,501.000000,,2013-07-04 15:02:00,
2013-07-04 11:11:00,86.0,75.0,-100.00,SE,127,8.0,16.0,70,0.01,,,0.18,501.000000,,2013-07-04 15:11:00,
2013-07-04 11:23:00,86.0,75.0,-100.00,SE,127,8.0,16.0,70,0.01,,,0.18,501.000000,,2013-07-04 15:23:00,
2013-07-04 11:33:00,86.0,75.0,-100.00,SE,127,8.0,16.0,70,0.01,,,0.18,501.000000,,2013-07-04 15:33:00,
2013-07-04 12:02:00,87.0,76.0,-100.00,ESE,117,7.0,19.0,69,0.00,,,0.18,629.000000,,2013-07-04 16:02:00,
2013-07-04 12:11:00,87.0,76.0,-100.00,ESE,117,7.0,19.0,69,0.00,,,0.18,629.000000,,2013-07-04 16:11:00,
2013-07-04 12:22:00,87.0,76.0,-100.00,ESE,117,7.0,19.0,69,0.00,,,0.18,629.000000,,2013-07-04 16:22:00,
2013-07-04 12:33:00,87.0,76.0,-100.00,ESE,117,7.0,19.0,69,0.00,,,0.18,629.000000,,2013-07-04 16:33:00,
2013-07-04 13:02:00,88.0,76.0,-100.00,SE,125,9.0,19.0,67,0.00,,,0.18,639.000000,,2013-07-04 17:02:00,
2013-07-04 13:12:00,88.0,76.0,-100.00,SE,125,9.0,19.0,67,0.00,,,0.18,639.000000,,2013-07-04 17:12:00,
2013-07-04 13:22:00,88.0,76.0,-100.00,SE,125,9.0,19.0,67,0.00,,,0.18,639.000000,,2013-07-04 17:22:00,
2013-07-04 13:34:00,88.0,76.0,-100.00,SE,125,9.0,19.0,67,0.00,,,0.18,639.000000,,2013-07-04 17:34:00,
2013-07-04 14:01:00,89.0,76.0,-100.00,SE,131,7.0,18.0,66,0.00,,,0.18,722.000000,,2013-07-04 18:01:00,
2013-07-04 14:11:00,89.0,76.0,-100.00,SE,131,7.0,18.0,66,0.00,,,0.18,722.000000,,2013-07-04 18:11:00,
2013-07-04 14:22:00,89.0,76.0,-100.00,SE,131,7.0,18.0,66,0.00,,,0.18,722.000000,,2013-07-04 18:22:00,
2013-07-04 14:33:00,89.0,76.0,-100.00,SE,131,7.0,18.0,66,0.00,,,0.18,722.000000,,2013-07-04 18:33:00,
2013-07-04 15:02:00,88.0,75.0,-100.00,SE,125,8.0,19.0,65,0.00,,,0.18,665.000000,,2013-07-04 19:02:00,
2013-07-04 15:12:00,88.0,75.0,-100.00,SE,125,8.0,19.0,65,0.00,,,0.18,665.000000,,2013-07-04 19:12:00,
2013-07-04 15:22:00,88.0,75.0,-100.00,SE,125,8.0,19.0,65,0.00,,,0.18,665.000000,,2013-07-04 19:22:00,
2013-07-04 15:33:00,88.0,75.0,-100.00,SE,125,8.0,19.0,65,0.00,,,0.18,665.000000,,2013-07-04 19:33:00,
2013-07-04 16:02:00,87.0,76.0,-100.00,ESE,105,8.0,18.0,69,0.00,,,0.18,597.000000,,2013-07-04 20:02:00,
2013-07-04 16:11:00,87.0,76.0,-100.00,ESE,105,8.0,18.0,69,0.00,,,0.18,597.000000,,2013-07-04 20:11:00,
2013-07-04 16:22:00,87.0,76.0,-100.00,ESE,105,8.0,18.0,69,0.00,,,0.18,597.000000,,2013-07-04 20:22:00,
2013-07-04 16:34:00,87.0,76.0,-100.00,ESE,105,8.0,18.0,69,0.00,,,0.18,597.000000,,2013-07-04 20:34:00,
2013-07-04 17:01:00,87.0,74.0,-100.00,ESE,111,8.0,22.0,66,0.00,,,0.17,453.000000,,2013-07-04 21:01:00,
2013-07-04 17:12:00,87.0,74.0,-100.00,ESE,111,8.0,22.0,66,0.00,,,0.17,453.000000,,2013-07-04 21:12:00,
2013-07-04 17:22:00,87.0,74.0,-100.00,ESE,111,8.0,22.0,66,0.00,,,0.17,453.000000,,2013-07-04 21:22:00,
2013-07-04 17:32:00,87.0,74.0,-100.00,ESE,111,8.0,22.0,66,0.00,,,0.17,453.000000,,2013-07-04 21:32:00,
2013-07-04 18:02:00,86.0,75.0,-100.00,ESE,116,7.0,16.0,69,0.00,,,0.16,376.000000,,2013-07-04 22:02:00,
2013-07-04 18:12:00,86.0,75.0,-100.00,ESE,116,7.0,16.0,69,0.00,,,0.16,376.000000,,2013-07-04 22:12:00,
2013-07-04 18:22:00,86.0,75.0,-100.00,ESE,116,7.0,16.0,69,0.00,,,0.16,376.000000,,2013-07-04 22:22:00,
2013-07-04 18:33:00,86.0,75.0,-100.00,ESE,116,7.0,16.0,69,0.00,,,0.16,376.000000,,2013-07-04 22:33:00,
2013-07-04 19:01:00,86.0,75.0,-100.00,ESE,121,7.0,15.0,69,0.00,,,0.16,186.000000,,2013-07-04 23:01:00,
2013-07-04 19:12:00,86.0,75.0,-100.00,ESE,121,7.0,15.0,69,0.00,,,0.16,186.000000,,2013-07-04 23:12:00,
2013-07-04 19:23:00,86.0,75.0,-100.00,ESE,121,7.0,15.0,69,0.00,,,0.16,186.000000,,2013-07-04 23:23:00,
2013-07-04 19:33:00,86.0,75.0,-100.00,ESE,121,7.0,15.0,69,0.00,,,0.16,186.000000,,2013-07-04 23:33:00,
2013-07-04 20:01:00,85.0,74.0,-100.00,ESE,113,6.0,14.0,69,0.00,,,0.16,149.000000,,2013-07-05 00:01:00,
2013-07-04 20:12:00,85.0,74.0,-100.00,ESE,113,6.0,14.0,69,0.00,,,0.16,149.000000,,2013-07-05 00:12:00,
2013-07-04 20:22:00,85.0,74.0,-100.00,ESE,113,6.0,14.0,69,0.00,,,0.16,149.000000,,2013-07-05 00:22:00,
2013-07-04 20:32:00,85.0,74.0,-100.00,ESE,113,6.0,14.0,69,0.00,,,0.16,149.000000,,2013-07-05 00:32:00,
2013-07-04 21:01:00,83.0,72.0,-100.00,ESE,121,7.0,15.0,70,0.00,,,0.13,24.000000,,2013-07-05 01:01:00,
2013-07-04 21:11:00,83.0,72.0,-100.00,ESE,121,7.0,15.0,70,0.00,,,0.13,24.000000,,2013-07-05 01:11:00,
2013-07-04 21:22:00,83.0,72.0,-100.00,ESE,121,7.0,15.0,70,0.00,,,0.13,24.000000,,2013-07-05 01:22:00,
2013-07-04 21:32:00,83.0,72.0,-100.00,ESE,121,7.0,15.0,70,0.00,,,0.13,24.000000,,2013-07-05 01:32:00,
2013-07-04 22:02:00,83.0,73.0,-100.00,SE,124,7.0,16.0,72,0.00,,,0.11,0.000000,,2013-07-05 02:02:00,
2013-07-04 22:11:00,83.0,73.0,-100.00,SE,124,7.0,16.0,72,0.00,,,0.11,0.000000,,2013-07-05 02:11:00,
2013-07-04 22:22:00,83.0,73.0,-100.00,SE,124,7.0,16.0,72,0.00,,,0.11,0.000000,,2013-07-05 02:22:00,
2013-07-04 22:32:00,83.0,73.0,-100.00,SE,124,7.0,16.0,72,0.00,,,0.11,0.000000,,2013-07-05 02:32:00,
2013-07-04 23:02:00,83.0,74.0,-100.00,ESE,109,6.0,15.0,74,0.00,,,0.11,0.000000,,2013-07-05 03:02:00,
2013-07-04 23:11:00,83.0,74.0,-100.00,ESE,109,6.0,15.0,74,0.00,,,0.11,0.000000,,2013-07-05 03:11:00,
2013-07-04 23:22:00,83.0,74.0,-100.00,ESE,109,6.0,15.0,74,0.00,,,0.11,0.000000,,2013-07-05 03:22:00,
2013-07-04 23:32:00,83.0,74.0,-100.00,ESE,109,6.0,15.0,74,0.00,,,0.11,0.000000,,2013-07-05 03:32:00,